Orbital Elements at Epoch 2459200.5 (2020-Dec-17.0) TDB
Reference: JPL 27 (heliocentric ecliptic J2000)
Element | Value | Uncertainty (1-sigma) | Units |
e | .1224175152746089 | 4.2292e-08 | |
a | 2.986923538755821 | 1.9615e-08 | au |
q | 2.621271780826092 | 1.211e-07 | au |
i | 8.889468172328504 | 4.3151e-06 | deg |
node | 274.2708025531228 | 2.6961e-05 | deg |
peri | 79.93182988221531 | 3.2124e-05 | deg |
M | 111.8807704357499 | 1.7562e-05 | deg |
tp | 2458614.513605623656 (2019-May-11.01360562) | 9.1158e-05 | TDB |
period | 1885.53494183015 5.16 | 1.8573e-05 5.085e-08 | d yr |
n | .1909272493516214 | 1.8807e-09 | deg/d |
Q | 3.352575296685551 | 2.2016e-08 | au |
|
| | Orbit Determination Parameters
Additional Information
|